Location: Lewisville
(33.0462°N, 96.9942°W)
Time: 18:18:58
(UTC-06:00)

N. Korean satellite - Visible Passes

Search period start: 16 January 2021 00:00
Search period end: 26 January 2021 00:00
Orbit: 453 x 502 km, 97.2° (Epoch: 16 January)

Date Brightness Start Highest point End Pass type
(mag) Time Alt. Az. Time Alt. Az. Time Alt. Az.
16 Jan 6.3 05:58:45 10° N 06:02:14 69° WNW 06:05:39 10° SSW visible
17 Jan 7.6 05:32:20 10° NNE 05:35:42 43° E 05:38:58 10° S visible
18 Jan 9.3 05:06:36 10° NE 05:09:02 18° E 05:11:27 10° SE visible
18 Jan 7.9 06:39:48 10° NNW 06:42:12 18° WNW 06:44:35 10° WSW visible
19 Jan 6.8 06:12:30 10° N 06:15:48 41° WNW 06:19:02 10° SSW visible
19 Jan 10.2 18:18:08 10° WSW 18:19:34 12° W 18:21:01 10° WNW visible
20 Jan 6.6 05:45:49 10° NNE 05:49:17 73° E 05:52:41 10° S visible
21 Jan 8.5 05:19:40 10° NE 05:22:41 27° E 05:25:39 10° SSE visible
21 Jan 8.4 06:54:24 10° NW 06:55:40 12° WNW 06:56:56 10° W visible
22 Jan 9.9 04:54:39 10° ENE 04:55:58 12° E 04:57:17 10° ESE visible
22 Jan 7.4 06:26:23 10° NNW 06:29:19 26° WNW 06:32:12 10° SW visible
23 Jan 6.3 05:59:25 10° N 06:02:50 67° WNW 06:06:13 10° SSW visible
24 Jan 7.5 05:32:57 10° NNE 05:36:16 44° E 05:39:32 10° S visible
25 Jan 9.3 05:07:10 10° NE 05:09:36 18° E 05:12:01 10° SE visible
25 Jan 7.9 06:40:27 10° NNW 06:42:46 17° WNW 06:45:03 10° WSW visible
